{"data":{"norad_id":60040,"epoch":"2026-09-21T13:43:44.516064Z","epoch_age_seconds":84715,"freshness":"FRESH","line1":"1 60040U 24112C   26264.57204301 -.00002142  00000+0 -12821-4 0  9990","line2":"2 60040  53.1584  20.8525 0001387 104.6024 255.5148 15.69712603131742","mean_motion":15.69712603,"eccentricity":0.0001387,"inclination_deg":53.1584,"raan_deg":20.8525,"arg_perigee_deg":104.6024,"mean_anomaly_deg":255.5148,"bstar":-1.2821e-5,"rev_number":13174,"period_min":91.736538092891,"perigee_km":358.78476097141,"apogee_km":360.65384230949,"semimajor_km":6737.8563016404,"source":"CELESTRAK","updated_at":"2026-09-22T09:00:49.141958Z"}}